Location: Cisewo
(53.3833°N, 14.9000°E)
Time: 12:55:21
(UTC+00:00)

BEESAT 3 - Pass Details

Date: 29 September 2021
Orbit: 481 x 510 km, 64.9° (Epoch: 22 October)

Event Time Altitude Azimuth Distance (km) Brightness Sun altitude
Rises 21:05:17 0° 313° (NW) 2,621 ? -34.9°
Reaches altitude 10° 21:07:30 10° 308° (NW) 1,735 ? -35.1°
Enters shadow 21:07:36 11° 308° (NW) 1,693 ? -35.1°
